This demonstration page uses our WeatherBlox Daily Observations layout. Learn more.

Left ArrowRight Arrow

34.02893, -84.19858

Hourly Observations for November 17, 2016

Temp ( °F °C ) Dew Point ( °F °C ) Humidity (%) Winds ( mph kmh ) Pressure ( in mb ) Visibility ( mi km ) Precip ( " mm )
12:53 am 00:53 Clear with Smoke 42 5.6 38 3.3 85 85 Calm 30.05 1018 10 16 0.00 0.00
1:53 am 01:53 Clear with Smoke 42 5.6 38 3.3 85 85 Calm 30.05 1018 10 16 0.00 0.00
2:53 am 02:53 Clear with Smoke 42 5.6 38 3.3 85 85 Calm 30.07 1018 10 16 0.00 0.00
3:53 am 03:53 Clear with Smoke 40 4.4 36 2.2 86 86 Calm 30.08 1019 10 16 0.00 0.00
4:53 am 04:53 Clear with Smoke 41 5 38 3.3 89 89 Calm 30.09 1019 10 16 0.00 0.00
5:53 am 05:53 Clear with Smoke 42 5.6 38 3.3 85 85 Calm 30.10 1019 10 16 0.00 0.00
6:53 am 06:53 Clear with Smoke 40 4.4 37 2.8 89 89 Calm 30.13 1020 10 16 0.00 0.00
7:53 am 07:53 Sunny with Smoke 42 5.6 39 3.9 89 89 Calm 30.14 1021 8 13 0.00 0.00
8:53 am 08:53 Sunny with Smoke 54 12.2 42 5.6 64 64 Calm 30.15 1021 10 16 0.00 0.00
9:53 am 09:53 Sunny with Smoke 63 17.2 42 5.6 47 47 Calm 30.15 1021 10 16 0.00 0.00
10:53 am 10:53 Sunny with Smoke 69 20.6 41 5 36 36 W 5 7 30.16 1021 10 16 0.00 0.00
11:53 am 11:53 Sunny with Smoke 72 22.2 41 5 33 33 Calm 30.13 1020 10 16 0.00 0.00
12:53 pm 12:53 Sunny with Smoke 76 24.4 41 5 29 29 VRB 3 6 30.11 1020 10 16 0.00 0.00
1:53 pm 13:53 Sunny with Smoke 75 23.9 40 4.4 28 28 VRB 3 6 30.09 1019 10 16 0.00 0.00
2:53 pm 14:53 Sunny with Smoke 76 24.4 40 4.4 27 27 WSW 3 6 30.08 1019 10 16 0.00 0.00
3:53 pm 15:53 Sunny with Smoke 76 24.4 40 4.4 27 27 W 6 9 30.08 1019 10 16 0.00 0.00
4:53 pm 16:53 Sunny with Smoke 75 23.9 40 4.4 28 28 Calm 30.08 1019 10 16 0.00 0.00
5:53 pm 17:53 Clear with Smoke 63 17.2 43 6.1 48 48 Calm 30.10 1019 10 16 0.00 0.00
6:53 pm 18:53 Clear with Smoke 58 14.4 43 6.1 58 58 Calm 30.13 1020 10 16 0.00 0.00
7:53 pm 19:53 Clear with Smoke 55 12.8 44 6.7 67 67 Calm 30.14 1021 10 16 0.00 0.00
8:53 pm 20:53 Clear with Smoke 53 11.7 44 6.7 72 72 Calm 30.15 1021 10 16 0.00 0.00
9:53 pm 21:53 Clear with Smoke 50 10 44 6.7 80 80 Calm 30.15 1021 10 16 0.00 0.00
10:53 pm 22:53 Clear with Smoke 50 10 44 6.7 80 80 Calm 30.14 1021 10 16 0.00 0.00
11:53 pm 23:53 Clear with Smoke 48 8.9 43 6.1 83 83 Calm 30.15 1021 10 16 0.00 0.00

Powered by AerisWeather